Rochester, NY

4:32 AM EDT on October 14, 2019 (GMT -0400)
Greater Rochester International

Weather History for KROC - May, 2019

Change the Weather History Date:

Saturday, May 11, 2019

  Actual Average Record
Temperature  
Mean Temperature 49 °F 55 °F  
Max Temperature 57 °F 66 °F 89 °F (1953)
Min Temperature 41 °F 45 °F 29 °F (1966)
Degree Days  
Heating Degree Days 16 10  
Month to date heating degree days 122 128  
Since 1 July heating degree days 6246 6431  
Cooling Degree Days 0 1  
Month to date cooling degree days 0 2  
Year to date cooling degree days 0 6  
Moisture  
Dew Point 35 °F    
Average Humidity 63    
Maximum Humidity 79    
Minimum Humidity 46    
Precipitation  
Precipitation 0.00 in 0.09 in 0.91 in (2003)
Month to date precipitation 1.44 0.98  
Year to date precipitation 11.37 10.57  
Snow  
Snow 0.00 in 0.10 in 1.00 in (1907)
Month to date snowfall 0.0 0.3  
Since 1 July snowfall 97.1 99.4  
Snow Depth 0.00 in    
Sea Level Pressure  
Sea Level Pressure 30.13 in    
Wind  
Wind Speed 7 mph (North)    
Max Wind Speed 13 mph    
Max Gust Speed 17 mph    
Visibility 10 miles    
Events      
T = Trace of Precipitation, MM = Missing Value Source: NWS Daily Summary

Daily Weather History Graph

Daily Weather History Graph

Search for Another Location

Airport or City:

Astronomy

May. 11, 2019 Rise Set
Actual Time 5:51 AM EDT 8:23 PM EDT
Civil Twilight 5:19 AM EDT 8:55 PM EDT
Nautical Twilight 4:39 AM EDT 9:35 PM EDT
Astronomical Twilight 3:54 AM EDT 10:21 PM EDT
Moon 11:58 AM EDT (5/11) 2:03 AM EDT (5/11)
Length of Visible Light 15h 35m
Length of Day
14h 31m
Waxing Crescent, 46% of the Moon is Illuminated
May 11
Waxing Crescent
May 11
First Quarter
May 18
Full
May 26
Last Quarter
Jun 3
New

Hourly Weather History & Observations

Time (EDT) Temp. Windchill Dew Point Humidity Pressure Visibility Wind Dir Wind Speed Gust Speed Precip Events Conditions
12:54 AM 46.9 °F - 35.1 °F 63% 30.12 in 10.0 mi NW 8.1 mph - N/A   Overcast
1:54 AM 46.0 °F 43.1 °F 35.1 °F 66% 30.12 in 10.0 mi NW 5.8 mph - N/A   Overcast
2:54 AM 43.0 °F 41.3 °F 34.0 °F 71% 30.15 in 10.0 mi WNW 3.5 mph - N/A   Clear
3:54 AM 42.1 °F 38.4 °F 34.0 °F 73% 30.14 in 10.0 mi WNW 5.8 mph - N/A   Partly Cloudy
4:54 AM 42.1 °F 40.2 °F 34.0 °F 73% 30.14 in 10.0 mi West 3.5 mph - N/A   Overcast
5:54 AM 41.0 °F 37.1 °F 35.1 °F 79% 30.15 in 10.0 mi West 5.8 mph - N/A   Overcast
6:54 AM 42.1 °F 39.2 °F 35.1 °F 76% 30.16 in 10.0 mi West 4.6 mph - N/A   Mostly Cloudy
7:54 AM 46.0 °F 41.9 °F 35.1 °F 66% 30.17 in 10.0 mi WNW 8.1 mph - N/A   Partly Cloudy
8:54 AM 48.9 °F - 35.1 °F 59% 30.18 in 10.0 mi NW 9.2 mph - N/A   Scattered Clouds
9:54 AM 50.0 °F - 35.1 °F 57% 30.19 in 10.0 mi NW 6.9 mph - N/A   Partly Cloudy
10:54 AM 53.1 °F - 37.0 °F 55% 30.18 in 10.0 mi Variable 4.6 mph - N/A   Partly Cloudy
11:54 AM 52.0 °F - 35.1 °F 53% 30.17 in 10.0 mi Calm Calm - N/A   Scattered Clouds
12:54 PM 54.0 °F - 36.0 °F 51% 30.16 in 10.0 mi ENE 8.1 mph - N/A   Mostly Cloudy
1:54 PM 54.0 °F - 37.0 °F 53% 30.15 in 10.0 mi NNE 8.1 mph - N/A   Mostly Cloudy
2:54 PM 55.0 °F - 36.0 °F 49% 30.14 in 10.0 mi Variable 5.8 mph - N/A   Mostly Cloudy
3:54 PM 55.9 °F - 37.0 °F 49% 30.13 in 10.0 mi North 10.4 mph - N/A   Overcast
4:54 PM 55.0 °F - 36.0 °F 49% 30.11 in 10.0 mi NE 6.9 mph - N/A   Mostly Cloudy
5:54 PM 54.0 °F - 34.0 °F 47% 30.11 in 10.0 mi NE 9.2 mph - N/A   Overcast
6:54 PM 52.0 °F - 32.0 °F 47% 30.10 in 10.0 mi ENE 8.1 mph - N/A   Mostly Cloudy
7:54 PM 52.0 °F - 32.0 °F 47% 30.09 in 10.0 mi East 9.2 mph - N/A   Overcast
8:54 PM 51.1 °F - 32.0 °F 48% 30.07 in 10.0 mi East 11.5 mph - N/A   Mostly Cloudy
9:54 PM 48.9 °F - 33.1 °F 54% 30.06 in 10.0 mi ENE 6.9 mph - N/A   Mostly Cloudy
10:54 PM 50.0 °F - 32.0 °F 50% 30.06 in 10.0 mi ENE 8.1 mph - N/A   Mostly Cloudy
11:54 PM 50.0 °F - 33.1 °F 52% 30.05 in 10.0 mi ENE 11.5 mph - N/A   Mostly Cloudy